Simultaneous Nadir Overpasses (SNOs) Predictions

Prediction of SNOs between GOES-16 and TERRA Satellite Orbit:

Table of predicted SNOs for the next 14.0 days since TLE Epoch: 11/3/2018
Index Date Time (GOES-16) GOES-16 Lat,Lon TERRA Lat,Lon Distance(km) Time Diff (sec)
1 11/04/2018 15:30:44 0.00, -75.20 0.04, -75.43 25.84 80
2 11/06/2018 15:21:11 0.00, -75.20 -0.58, -72.47 311.67 80
3 11/07/2018 03:42:35 -0.00, -75.20 -0.51, -77.66 279.30 80
4 11/09/2018 03:27:42 -0.00, -75.21 0.10, -74.69 58.72 80
5 11/11/2018 03:15:29 0.00, -75.22 0.71, -71.72 397.10 80
6 11/11/2018 15:36:45 -0.00, -75.23 0.33, -76.89 187.62 80
7 11/13/2018 15:27:12 -0.01, -75.26 -0.27, -73.92 151.36 80
8 11/14/2018 03:48:36 0.01, -75.25 -0.82, -79.11 439.09 80
9 11/15/2018 15:12:20 -0.01, -75.28 -0.94, -70.97 490.93 80
10 11/16/2018 03:36:24 0.01, -75.28 -0.16, -76.16 99.31 80




NCC Satellite Simultaneous Nadir Overpasses (SNOs) Prediction Service
